Regional Weather Roundup
Issued by NWS

Home | Current Version | Previous Version | Graphics & Text | Print | Product List | Glossary Off
Versions: 1 2 3 4 5 6 7 8 9 10 11 12 13 14 15 16 17 18 19 20 21 22 23 24 25 26 27 28 29 30 31 32 33 34 35 36 37 38 39 40 41 42 43 44 45 46 47 48 49 50

000
ASUS43 KMKX 270300
RWRWI

WISCONSIN REGIONAL WEATHER ROUNDUP
NATIONAL WEATHER SERVICE MILWAUKEE/SULLIVAN WI
900 PM CST WED NOV 26 2014

NOTE: "FAIR" INDICATES FEW OR NO CLOUDS BELOW 12,000 FEET WITH NO
SIGNIFICANT WEATHER AND/OR OBSTRUCTIONS TO VISIBILITY.

WIZ001-002-006>008-014>016-023>028-270400-
NORTHWEST WISCONSIN

CITY           SKY/WX    TMP DP  RH WIND       PRES   REMARKS
SUPERIOR ARPT  FAIR       9  -2  61 N10G17    30.39R WCI  -6
ASHLAND        CLOUDY    16  10  77 N13       30.32R WCI   2
HAYWARD        LGT SNOW  14   8  77 N9        30.28R WCI   2
SIREN          CLOUDY    15   4  62 N13G18    30.32R WCI   1
CUMBERLAND     CLOUDY    18  10  73 N14       30.26R WCI   4
RICE LAKE      CLOUDY    19  11  72 N13G18    30.28S WCI   6
CHETEK         CLOUDY    19  13  76 NW6       30.27R WCI  11
LADYSMITH      LGT SNOW  20  15  82 N13       30.25R WCI   7
EAU CLAIRE     NOT AVBL
MENOMONIE      CLOUDY    24  17  74 NW10      30.26S WCI  13
NEW RICHMOND   CLOUDY    20  11  69 N10       30.29S WCI   8
OSCEOLA        CLOUDY    20  11  68 NW15      30.34R WCI   6
$$

WIZ003>005-009-010-017-018-270400-
NORTH CENTRAL WISCONSIN

CITY           SKY/WX    TMP DP  RH WIND       PRES   REMARKS
MANITOWISH WTR LGT SNOW  19  17  92 N6        30.16S WCI  11
ARBOR VITAE    LGT SNOW  22  19  89 N6        30.15S WCI  14
WOODRUFF       LGT SNOW  22  19  89 N6        30.15S WCI  14
RHINELANDER    CLOUDY    20  16  84 N5        30.15R WCI  13
EAGLE RIVER    FLURRIES  19  15  84 N9        30.14R WCI   9
LAND O LAKES   FLURRIES  19  17  92 N8        30.15R WCI   9
PHILLIPS       FLURRIES  18  14  86 NW9       30.19R WCI   6
TOMAHAWK       FLURRIES  19  16  87 NW7       30.17R WCI  10
MEDFORD        FLURRIES  21  18  89 NW9       30.17R WCI  10
MERRILL        PTCLDY    21  17  82 N6        30.17R WCI  14
$$

WIZ029-030-035-036-043>047-270400-
CENTRAL WISCONSIN

CITY           SKY/WX    TMP DP  RH WIND       PRES   REMARKS
WAUSAU         MOCLDY    22  17  81 NW8       30.15S WCI  12
MOSINEE        CLOUDY    21  21 100 NW8       30.17S WCI  12
MARSHFIELD     CLOUDY    22  18  85 NW8       30.18R WCI  12
STEVENS POINT  MIX PCPN  22  20  93 NW3       30.18S
WAUPACA        LGT SNOW  23  21  91 W5        30.19R WCI  17
WAUTOMA        NOT AVBL
WISC RAPIDS    LGT SNOW  23  19  85 NW5       30.20S FOG     WCI  17
CAMP DOUGLAS   LGT SNOW  23  23 100 NW6       30.20F FOG     WCI  16
$$

WIZ011>013-019>022-031-037>040-048>050-270400-
NORTHEAST WISCONSIN

CITY           SKY/WX    TMP DP  RH WIND       PRES   REMARKS
ANTIGO         CLOUDY    20  18  91 NW8       30.13S WCI  11
SHAWANO        CLOUDY    23  20  87 SW3       30.18R FOG
OCONTO         CLOUDY    20  19  94 W3        30.17S
STURGEON BAY   CLOUDY    25  18  74 NW6       30.16R WCI  18
GREEN BAY      MOCLDY    19  16  88 W5        30.18R FOG     WCI  12
MANITOWOC      NOT AVBL
APPLETON       MOCLDY    16  16 100 W9        30.17S WCI   4
CLINTONVILLE   CLOUDY    21  19  93 W5        30.17S WCI  15
OSHKOSH        MOCLDY    19  15  84 MISG      30.18S FOG
$$

WIZ032>034-041-042-053>061-270400-
SOUTHWEST WISCONSIN

CITY           SKY/WX    TMP DP  RH WIND       PRES   REMARKS
LA CROSSE      MOCLDY    22  19  89 NW3       30.25S
SPARTA         CLOUDY    24  21  89 NW3       30.24S
VIROQUA        CLOUDY    23  23 100 NW7       30.20S WCI  15
BOSCOBEL       CLOUDY    20  17  88 CALM      30.25R FOG
PRAIRIE DU CHI LGT SNOW  26  23  89 CALM      30.24S
PLATTEVILLE    MOCLDY    22  19  91 CALM      30.21S
$$

WIZ056-057-062-063-064-067-068-270400-
SOUTH CENTRAL WISCONSIN

CITY           SKY/WX    TMP DP  RH WIND       PRES   REMARKS
REEDSBURG      CLOUDY    18  16  95 CALM      30.20S FOG
BARABOO/DELLS  MOCLDY    17  15  93 CALM      30.19S FOG
LONE ROCK      NOT AVBL
MINERAL POINT  PTCLDY    21  19  93 NW5       30.19R FOG     WCI  15
MADISON        MOCLDY    17  14  88 MISG      30.20S FOG
MIDDLETON      PTCLDY    15  12  90 CALM      30.21R
WATERTOWN      FAIR      19  17  94 NW6       30.18R WCI  10
MONROE         CLOUDY    21  19  93 N8        30.19R WCI  12
JANESVILLE     MOCLDY    19  18  93 NW7       30.19R FOG     WCI  10
$$

WIZ051-052-058>065-066-070>072-270400-
SOUTHEAST WISCONSIN

CITY           SKY/WX    TMP DP  RH WIND       PRES   REMARKS
MILWAUKEE      CLOUDY    27  19  72 NW9       30.17R WCI  18
WAUKESHA       PTCLDY    19  18  93 W10       30.18R FOG     WCI   8
MILWAUKEE/TIMM CLOUDY    23  18  80 NW8       30.18R WCI  14
RACINE         CLOUDY    27  21  78 N7        30.18R WCI  19
BURLINGTON     MOCLDY    21  19  89 NW13      30.17R FOG     WCI   9
KENOSHA        CLOUDY    26  21  81 NW10      30.16R HAZE    WCI  16
FOND DU LAC    MOCLDY    19  15  84 W5        30.18S WCI  12
SHEBOYGAN      PTCLDY    18  15  88 NW6       30.17S FOG     WCI  10
WEST BEND      PTCLDY    19  18  93 W3        30.17S FOG
JUNEAU         PTCLDY    17  15  93 CALM      30.19S FOG
$$

LSZ147-162-270400-
LAKE SUPERIOR

STATION/POSITION TIME  TEMP    WIND        PRES    WAVE
                       AIR SEA DIR/SP/G            HT/PER
                 (UTC) (F)     (DEG/KT/KT) (MB)    (FT/S)
DEVILS ISLAND    0200   17     350/ 21/ 25 1028.1R
PORT WING        0200   16     350/ 18/ 22 1027.4
SAXON HARBOR     0240   22     330/ 14/ 19 1025.4R
$$

LMZ867-665-643>646-270400-
LAKE MICHIGAN

STATION/POSITION TIME  TEMP    WIND        PRES    WAVE
                       AIR SEA DIR/SP/G            HT/PER
                 (UTC) (F)     (DEG/KT/KT) (MB)    (FT/S)
CHAMBERS ISLAND  0200   25     270/  4/  8 1021.3F
N MID LAKE BUOY  0150   29 42  300/  8/ 12 1021.6S   1
NORTHPORT PIER   0202   27     300/ 11/ 16 1021.0S
SISTER BAY       0213          330/  8/ 11   N/A
ALGOMA LAKESHORE 0113          330/  4/  7   N/A
KEWAUNEE LAKESHO 0200   19     310/  3/  5 1020.5F
SHEBOYGAN LAKESH 0200   22 36  320/  9/ 10 1023.0S
PORT WASHINGTON  0200   24     310/  9/ 16 1022.0S
MILWAUKEE LAKESH 0200   27     310/  7/ 11   N/A
S MID LAKE BUOY  0150   33 42   20/  2/  4 1021.1R   1
KENOSHA   LAKESH 0200   29     320/ 11/ 16 1020.7R
$$

TC  - TEMPERATURE IN CELSIUS
VSB - VISIBILITY IN STATUTE MILES
WCI - WIND CHILL INDEX
HX  - HEAT INDEX



USA.gov is the U.S. government's official web portal to all federal, state and local government web resources and services.